User: anonymous   Login
Location: Westminster
(33.3626°N, 96.4619°W)
Time: 20:32:38
(UTC+00:00)
Language:

OAO 3 Rocket - Orbit

View from above orbital plane
View from above orbital plane
View from above satellite
View from above satellite

Ground track
Ground track

The orbit data is extracted from the following two-line orbital elements,

1  6155U 72065B   22148.51527297  .00000913  00000-0  14528-3 0  9998
2  6155  35.0044  79.5067 0037920 322.4489  37.3564 14.71966218658194
Epoch (UTC): 28 May 2022 12:21:59
Eccentricity: 0.0037920
inclination: 35.0044°
perigee height: 628 km
apogee height: 681 km
right ascension of ascending node: 79.5067°
argument of perigee: 322.4489°
revolutions per day: 14.71966218
mean anomaly at epoch: 37.3564°
orbit number at epoch: 65819

The dashed part of the orbit path shows where the satellite is in the earth's shadow,  

DLR